Regional Weather Roundup
Issued by NWS Newport/Morehead, NC

Current Version | Previous Version | Text Only | Print | Product List | Glossary Off
Versions: 1 2 3 4 5 6 7 8 9 10 11 12 13 14 15 16 17 18 19 20 21 22 23 24 25 26 27 28 29 30 31 32 33 34 35 36 37 38 39 40 41 42 43 44 45 46 47 48 49 50
000 ASUS42 KMHX 032024 RWRMHX WEATHER ROUNDUP FOR EASTERN NORTH CAROLINA NATIONAL WEATHER SERVICE NEWPORT/MOREHEAD CITY NC 300 PM EST SAT DEC 03 2016 NOTE: "FAIR" INDICATES FEW OR NO CLOUDS BELOW 12,000 FEET WITH NO SIGNIFICANT WEATHER AND/OR OBSTRUCTIONS TO VISIBILITY NCZ015>017-031-032-045>047-102-103-032100- NORTH COAST CITY SKY/WX TMP DP RH WIND PRES REMARKS EDENTON MOSUNNY 53 31 43 CALM 30.22R ELIZABETH CITY SUNNY 53 29 39 NW9 30.19R KITTY HAWK CLOUDY 49 36 59 NW6 30.18R MANTEO CLOUDY 50 31 49 N9 30.19R $$ NCZ045>047-081-094-103-104-032100- CENTRAL COAST CITY SKY/WX TMP DP RH WIND PRES REMARKS FRISCO SUNNY 54 35 48 VRB5 30.18S $$ NCZ095-097-098-100-101-032100- SOUTHERN COAST CITY SKY/WX TMP DP RH WIND PRES REMARKS BEAUFORT SUNNY 54 32 43 N9 30.21R CEDAR ISLAND NOT AVBL JACKSONVILLE SUNNY 54 29 38 VRB6 30.21R PINEY ISLAND CLEAR N/A N/A N/A N10 30.19S WILMINGTON CLOUDY 53 30 41 NW6 30.23R $$ NCZ011>013-027>030-043-044-078>080-089-090>093-098-032100- COASTAL PLAIN CITY SKY/WX TMP DP RH WIND PRES REMARKS AHOSKIE SUNNY 50 29 44 CALM 30.23R CLINTON SUNNY 52 31 45 CALM 30.23R ELIZABETHTOWN MOSUNNY 52 31 44 CALM 30.22S GOLDSBORO MOSUNNY 53 27 36 NW8 30.20R GREENVILLE CLOUDY 54 30 40 N8 30.23R HAVELOCK SUNNY 53 32 44 NW8 30.21R KENANSVILLE CLOUDY 54 28 37 CALM 30.23R KINSTON SUNNY 54 28 37 N6 30.22R NEW BERN SUNNY 53 31 42 NW6 30.21R RICHLANDS MOSUNNY 54 30 40 NW6 30.22S ROCKY MOUNT MOSUNNY 52 28 39 NW5 30.23R WASHINGTON CLOUDY 54 29 39 N6 30.22R WHITEVILLE PTSUNNY 52 30 43 CALM 30.22S $$ AMZ130-135-150-152-154-156-158-170-250-252-270-ANZ085-086-088-633-658-670-032100- MARINE OBSERVATIONS STATION/POSITION TIME TEMP WIND PRES WAVE SWELL AIR SEA DIR/SP/G HT/PER HT/PER (UTC) (F) (DEG/KT/KT) (MB) (FT/S) (FT/S) CHESAPEAKE LIGHT NOT AVBL 64 E VA BEACH 1950 50 60 330/ 19/ 25 1019.9 7/ 6 2/16 DUCK 2000 49 56 320/ 12/ 14 1021.7 2 E DUCK NOT AVBL OREGON INLET 2000 50 55 330/ 9/ 12 1021.9 13E OREGON INLT 2000 60 N/A 6/ 7 5/ 7 HATTERAS CG 2000 50 58 330/ 11/ 13 1021.4 DIAMOND BUOY 1950 59 74 360/ 16/ 19 1021.6 5/ 8 3/ 8 CAPE LOOKOUT 2000 51 340/ 8/ 10 1022.5 BEAUFORT LAB 2000 51 56 360/ 8/ 9 1021.7 30 SE NEW RVR IN 2008 52 71 20/ 8/ 16 1023.0 30 SE NEW RVR IN NOT AVBL 27 SE WRIGHTSVLE 2008 51 69 10/ 10/ 16 1023.0 5 SE WRIGHTSVLE NOT AVBL 225 S CAPE HAT 1950 64 74 360/ 14/ 17 1019.5 6/ 7 5/ 7 41 SE CHARLESTON 1950 57 75 20/ 14/ 17 1022.5 4/ 6 2/ 8 $$

USA.gov is the U.S. government's official web portal to all federal, state and local government web resources and services.